TITAN 3C TRANSTAGE DEB, 8832

Orbit data source: Space-Track

TITAN 3C TRANSTAGE DEB, 8832 is space debris in GEO originally from a launch on Mon, 15 Mar 1976 UTC launched from the Air Force Eastern Test Range (AFETR). Debris objects in space refer to the collection of defunct objects orbiting the Earth. Examples of debris include non-operational satellites, rocket bodies, and fragments generated from explosions, collisions, or faulty payload assembly.

Loading next visibility...
Identifier
8832, 1976-023J
Orbit
GEO
Last TLE update
1 day ago
Origin
Manufacturer
TRW
Mission
LES 9 operational debris"
Bus & Motor
Unknown
Mass
~100 kg wet, ~100 kg dry
Launch date (UTC)
1976-03-15 (49 years ago)
Launch vehicle
Unknown
Launch site
Air Force Eastern Test Range (AFETR)
Object type
Payload
Rocket body
Debris
Shape & HBR
Unknown
Radar Cross Section
Medium (>0.1 m² and <1 m²)

Expand to show TLE details & history

TLE from 1 day ago
0 TITAN 3C TRANSTAGE DEB
1 08832U 76023J   25128.32123429 -.00000079  00000-0  00000-0 0  9990
2 08832  21.0225  47.8276 0138051  86.3369  59.8938  0.98259948113621
Epoch: 2025-05-08T07:42Z
Definitive object data (Epoch: 2025-05-08T07:42:34.642Z)
Latitude
11.0698°
Longitude
-144.82491°
Altitude
36,071.167 km
Speed
3.075 km/s
True Right ascension
13h 08m 51s
True Declination
11° 03' 32"
Sunlit
Object was in daylight at TLE epoch
Visualization TLE readout
Latitude
-17.87719°
Longitude
-57.32642°
Altitude
36,881.97 km
Speed
3.017 km/s
Apparent Right ascension
18h 35m 26s
Apparent Declination
-24° 16' 50"
Sunlit
Object is in daylight
Visualization observer readout
Local Sidereal Time
22:31:23
Azimuth
231.711° WSW
Elevation
5.529°
Doppler factor
1
Orbital elements
Apogee altitude
36,951.064 km
Perigee altitude
35,771.026 km
Semi-major axis
42,739.182 km
Eccentricity
0.0138051
Inclination
21.0225°
RAAN
47.8276°
Arg. of periapsis
86.3369°
True anomaly
61.27415°
Mean anomaly
59.8938°
Eccentric anomaly
60.58279°
Mean motion
0.24564 °/min
BSTAR
Unknown
Orbital period
1465.54 mins
Loading historical data...
8832 neighbors
Loading maneuver chart data...
Loading SW <> Apogee altitude chart data...
Loading historical data...
Loading historical data...
Loading historical data...
Loading historical data...
Loading historical data...
Loading historical data...
Loading historical data...

TITAN 3C TRANSTAGE DEB Visibility forecast

Observer location: undefined°, undefined°

Span
Click to sort rows by Start time (UTC) header in descending order
Start Az.
Max El. time (UTC)
Max El. Az.
Max El.
End time (UTC)
End Az.
942 mins2025-05-09 20:25:15.083Z236.186° WSW2025-05-10 05:39:15.083Z264.428° W27.847°2025-05-10 12:07:15.083Z243.151° WSW
|